QPF
0.00 0.00 0.00 0.00 0.00 0.00 0.00 0.00 0.00 0.00 0.00 0.00 0.00 0.00 0.00 0.00 0.00 0.00 0.00 0.00 0.00 0.01 0.00 0.00 0.00 0.00 0.00 0.00 0.00 0.00 0.08 0.04 0.03 0.04 0.00 0.00 0.01 0.01 0.06 0.02 0.02 0.00
0.00 0.00 0.00 0.00 0.00 0.00 0.00 0.00 0.00 0.00 0.00 0.00 0.00 0.00 0.00 0.00 0.00 0.00 0.00 0.00 0.00 0.00 0.00 0.00 0.00 0.00 0.00 0.00 0.01 0.00 0.01 0.01 0.01 0.00 0.03 0.01 0.00 0.00 0.00 0.00 0.00 0.00
0.00 0.00 0.00 0.00 0.00 0.00 0.00 0.00 0.00 0.00 0.00 0.00 0.00 0.00 0.00 0.00 0.00 0.00 0.00 0.00 0.00 0.00 0.00 0.00 0.00 0.00 0.00 0.01 0.02 0.00 0.00 0.00 0.00 0.01 0.02 0.00 0.00 0.01 0.00 0.03 0.02 0.02
0.00 0.00 0.00 0.00 0.00 0.00 0.00 0.00 0.00 0.00 0.00 0.00 0.00 0.00 0.00 0.00 0.00 0.00 0.00 0.00 0.00 0.00 0.00 0.00 0.00 0.00 0.00 0.00 0.01 0.02 0.00 0.00 0.00 0.00 0.03 0.01 0.00 0.01 0.00 0.00 0.00 0.01
0.00 0.00 0.00 0.00 0.00 0.00 0.00 0.00 0.00 0.00 0.00 0.00 0.00 0.00 0.00 0.00 0.00 0.00 0.00 0.00 0.00 0.00 0.00 0.00 0.00 0.00 0.00 0.00 0.00 0.00 0.00 0.01 0.01 0.00 0.01 0.01 0.00 0.01 0.00 0.01 0.00 0.00
0.00 0.00 0.00 0.00 0.00 0.00 0.00 0.00 0.00 0.00 0.00 0.00 0.00 0.00 0.00 0.00 0.00 0.00 0.00 0.00 0.00 0.00 0.00 0.00 0.00 0.00 0.00 0.00 0.00 0.00 0.00 0.00 0.00 0.00 0.00 0.00 0.00 0.00 0.00 0.00 0.00 0.00
0.00 0.00 0.00 0.00 0.00 0.00 0.00 0.00 0.00 0.00 0.00 0.00 0.00 0.00 0.00 0.00 0.00 0.00 0.00 0.00 0.00 0.00 0.00 0.00 0.00 0.00 0.00 0.00 0.00 0.00 0.00 0.00 0.01 0.01 0.00 0.00 0.00 0.00 0.00 0.00 0.00 0.01
0.00 0.00 0.00 0.00 0.00 0.00 0.00 0.00 0.00 0.00 0.00 0.00 0.00 0.00 0.00 0.00 0.00 0.00 0.00 0.00 0.00 0.00 0.00 0.00 0.00 0.00 0.00 0.00 0.00 0.00 0.00 0.00 0.01 0.05 0.03 0.00 0.00 0.00 0.00 0.00 0.00 0.00
0.00 0.00 0.00 0.00 0.00 0.00 0.00 0.00 0.00 0.00 0.00 0.00 0.00 0.00 0.00 0.00 0.00 0.00 0.00 0.00 0.00 0.00 0.00 0.00 0.00 0.00 0.00 0.00 0.00 0.00 0.00 0.00 0.00 0.00 0.00 0.00 0.00 0.00 0.00 0.00 0.00 0.00
0.00 0.00 0.00 0.00 0.00 0.00 0.00 0.00 0.00 0.00 0.00 0.00 0.00 0.00 0.00 0.00 0.00 0.00 0.00 0.00 0.00 0.00 0.00 0.00 0.00 0.00 0.00 0.00 0.00 0.01 0.00 0.00 0.00 0.00 0.00 0.02 0.00 0.00 0.02 0.00 0.00 0.01
0.00 0.00 0.00 0.00 0.00 0.00 0.00 0.00 0.00 0.00 0.00 0.00 0.00 0.00 0.00 0.00 0.00 0.00 0.00 0.00 0.00 0.00 0.00 0.00 0.00 0.00 0.00 0.00 0.00 0.00 0.00 0.00 0.00 0.00 0.00 0.01 0.01 0.00 0.00 0.00 0.00 0.01
0.00 0.00 0.00 0.00 0.00 0.00 0.00 0.00 0.00 0.00 0.00 0.00 0.00 0.00 0.00 0.00 0.00 0.00 0.00 0.00 0.00 0.00 0.00 0.00 0.00 0.00 0.00 0.00 0.00 0.00 0.00 0.00 0.00 0.02 0.00 0.00 0.01 0.00 0.00 0.02 0.00 0.00
0.00 0.00 0.00 0.00 0.00 0.00 0.00 0.00 0.00 0.00 0.00 0.00 0.00 0.00 0.00 0.00 0.00 0.00 0.00 0.00 0.00 0.00 0.00 0.00 0.00 0.00 0.00 0.00 0.00 0.00 0.00 0.00 0.00 0.00 0.00 0.01 0.00 0.01 0.00 0.03 0.02 0.01
0.00 0.00 0.00 0.00 0.00 0.00 0.00 0.00 0.00 0.00 0.00 0.00 0.00 0.00 0.00 0.00 0.00 0.00 0.00 0.00 0.00 0.00 0.00 0.00 0.00 0.00 0.00 0.00 0.00 0.00 0.01 0.01 0.01 0.01 0.01 0.00 0.01 0.00 0.01 0.00 0.01 0.01
0.00 0.00 0.00 0.00 0.00 0.00 0.00 0.00 0.00 0.00 0.00 0.00 0.00 0.01 0.00 0.00 0.00 0.00 0.02 0.00 0.00 0.00 0.00 0.00 0.00 0.02 0.05 0.01 0.00 0.00 0.00 0.00 0.00 0.00 0.00 0.00 0.01 0.01 0.01 0.01 0.00 0.03
0.00 0.01 0.00 0.00 0.00 0.00 0.00 0.00 0.00 0.00 0.00 0.00 0.00 0.00 0.03 0.00 0.00 0.00 0.01 0.02 0.02 0.01 0.00 0.00 0.01 0.01 0.01 0.00 0.00 0.02 0.04 0.01 0.00 0.01 0.01 0.01 0.05 0.01 0.00 0.01 0.01 0.04
0.02 0.02 0.00 0.00 0.00 0.00 0.00 0.00 0.00 0.00 0.00 0.00 0.00 0.00 0.00 0.00 0.00 0.00 0.00 0.02 0.03 0.03 0.00 0.00 0.01 0.00 0.00 0.00 0.00 0.00 0.01 0.02 0.01 0.01 0.00 0.02 0.01 0.00 0.06 0.03 0.02 0.02
0.05 0.14 0.06 0.00 0.00 0.00 0.00 0.00 0.00 0.00 0.00 0.00 0.00 0.01 0.00 0.00 0.00 0.00 0.00 0.00 0.01 0.02 0.02 0.02 0.02 0.00 0.00 0.00 0.00 0.00 0.00 0.03 0.01 0.01 0.03 0.04 0.03 0.01 0.02 0.03 0.03 0.07
0.34 0.16 0.10 0.22 0.00 0.00 0.00 0.00 0.00 0.00 0.00 0.00 0.00 0.00 0.00 0.00 0.00 0.00 0.00 0.00 0.00 0.00 0.01 0.01 0.00 0.00 0.00 0.00 0.00 0.00 0.00 0.00 0.00 0.01 0.00 0.03 0.02 0.02 0.02 0.02 0.02 0.01
0.28 0.33 0.19 0.09 0.23 0.07 0.01 0.00 0.00 0.00 0.00 0.00 0.00 0.00 0.00 0.00 0.00 0.00 0.00 0.00 0.00 0.00 0.00 0.00 0.01 0.00 0.00 0.00 0.00 0.00 0.00 0.00 0.00 0.01 0.00 0.00 0.00 0.01 0.02 0.04 0.13 0.07
0.08 0.14 0.18 0.21 0.18 0.07 0.28 0.09 0.07 0.01 0.00 0.00 0.00 0.00 0.00 0.00 0.00 0.00 0.00 0.00 0.00 0.00 0.00 0.00 0.00 0.00 0.00 0.00 0.00 0.00 0.00 0.00 0.00 0.00 0.00 0.00 0.00 0.00 0.00 0.00 0.04 0.03
0.17 0.16 0.44 0.29 0.37 0.20 0.42 0.24 0.32 0.21 0.11 0.00 0.00 0.00 0.00 0.00 0.00 0.00 0.00 0.00 0.00 0.00 0.00 0.00 0.00 0.00 0.00 0.00 0.00 0.00 0.00 0.00 0.00 0.00 0.00 0.00 0.00 0.00 0.00 0.00 0.03 0.11
0.39 0.36 0.26 0.25 0.21 0.25 0.18 0.11 0.10 0.29 0.29 0.36 0.12 0.01 0.00 0.00 0.00 0.00 0.00 0.00 0.00 0.00 0.00 0.00 0.00 0.00 0.00 0.00 0.00 0.00 0.00 0.00 0.00 0.00 0.00 0.00 0.00 0.00 0.01 0.02 0.05 0.22
0.60 0.45 0.44 0.24 0.10 0.49 0.22 0.16 0.12 0.32 0.17 0.42 0.21 0.12 0.02 0.00 0.00 0.00 0.00 0.00 0.00 0.00 0.01 0.00 0.03 0.00 0.00 0.00 0.00 0.00 0.00 0.00 0.00 0.00 0.00 0.00 0.01 0.03 0.03 0.11 0.17 0.13
1.27 1.22 1.47 0.74 0.58 0.20 0.13 0.21 0.21 0.15 0.14 0.23 0.17 0.18 0.07 0.02 0.03 0.00 0.00 0.00 0.00 0.00 0.01 0.00 0.01 0.00 0.00 0.00 0.00 0.00 0.00 0.00 0.00 0.00 0.00 0.08 0.13 0.29 0.16 0.17 0.20 0.35
0.37 0.17 0.42 0.35 0.38 0.28 0.20 0.46 0.37 0.57 0.40 0.51 0.26 0.43 0.14 0.08 0.09 0.02 0.01 0.01 0.01 0.00 0.01 0.01 0.01 0.00 0.00 0.00 0.00 0.00 0.00 0.00 0.00 0.00 0.01 0.09 0.09 0.22 0.51 0.25 0.20 0.14
MSLP
1012.19 1012.23 1012.43 1012.63 1012.83 1012.87 1013.03 1013.23 1013.19 1013.35 1013.47 1013.47 1013.83 1013.71 1013.71 1013.59 1013.47 1013.59 1013.91 1014.11 1014.31 1014.55 1014.71 1014.87 1014.95 1015.11 1015.15 1015.23 1015.35 1015.51 1015.79 1015.87 1015.79 1015.83 1016.03 1016.15 1016.31 1016.23 1016.23 1016.15 1016.15 1016.47
1012.23 1012.19 1012.19 1012.31 1012.51 1012.55 1012.71 1012.71 1012.83 1012.95 1013.15 1013.11 1013.19 1013.31 1013.23 1013.31 1013.31 1013.39 1013.75 1013.99 1014.11 1014.35 1014.39 1014.51 1014.67 1014.83 1014.95 1015.03 1015.23 1015.47 1015.71 1015.83 1016.07 1015.47 1015.95 1016.15 1016.11 1015.95 1015.99 1015.95 1015.99 1016.07
1012.11 1012.19 1012.23 1012.35 1012.43 1012.47 1012.39 1012.43 1012.43 1012.51 1012.79 1012.75 1012.75 1012.95 1013.15 1013.11 1013.31 1013.31 1013.55 1013.71 1013.99 1013.99 1014.23 1014.31 1014.47 1014.55 1014.59 1014.75 1014.91 1015.15 1015.43 1015.71 1015.87 1015.51 1015.63 1015.95 1015.87 1015.99 1015.91 1015.71 1015.99 1016.11
1012.03 1011.99 1012.03 1012.03 1011.95 1012.15 1012.03 1012.23 1012.27 1012.35 1012.35 1012.67 1012.71 1012.67 1012.71 1012.83 1013.03 1013.31 1013.35 1013.51 1013.75 1013.87 1013.91 1014.07 1014.27 1014.35 1014.47 1014.51 1014.79 1015.03 1015.11 1015.27 1015.23 1015.27 1015.67 1015.79 1015.75 1015.67 1015.71 1015.67 1015.71 1015.83
1011.75 1011.79 1011.67 1011.67 1011.55 1011.63 1011.63 1011.95 1012.15 1012.23 1012.23 1012.35 1012.23 1012.23 1012.55 1012.63 1012.95 1013.15 1013.27 1013.43 1013.51 1013.67 1013.75 1013.95 1013.99 1014.19 1014.31 1014.47 1014.71 1015.07 1014.99 1015.23 1015.15 1015.27 1015.63 1015.91 1015.75 1015.67 1015.51 1015.47 1015.67 1015.95
1011.39 1011.43 1011.39 1011.47 1011.39 1011.47 1011.67 1011.75 1011.83 1011.95 1011.95 1012.07 1012.15 1011.91 1012.23 1012.31 1012.63 1012.83 1013.11 1013.35 1013.39 1013.47 1013.51 1013.67 1013.91 1013.91 1014.03 1014.31 1014.59 1014.83 1014.87 1015.03 1014.99 1015.11 1015.47 1015.75 1015.59 1015.31 1015.31 1015.27 1015.43 1015.67
1011.27 1011.31 1011.35 1011.19 1011.19 1011.19 1011.47 1011.51 1011.51 1011.47 1011.59 1011.47 1011.75 1011.91 1011.95 1012.27 1012.47 1012.63 1012.83 1013.03 1013.19 1013.35 1013.31 1013.47 1013.71 1013.83 1013.71 1013.99 1014.35 1014.67 1014.67 1014.67 1014.75 1014.95 1015.31 1015.43 1015.43 1015.47 1015.19 1015.19 1015.39 1015.71
1010.95 1010.99 1011.03 1011.03 1011.15 1011.15 1011.35 1011.31 1011.35 1011.35 1011.27 1011.31 1011.63 1011.71 1011.71 1012.11 1012.35 1012.35 1012.47 1012.75 1012.99 1013.15 1013.15 1013.11 1013.39 1013.63 1013.59 1013.71 1014.19 1014.51 1014.63 1014.47 1014.59 1014.95 1015.23 1015.35 1015.39 1015.59 1015.43 1015.31 1015.31 1015.63
1010.59 1010.79 1010.83 1010.91 1011.07 1011.07 1011.19 1011.07 1011.03 1011.15 1011.03 1011.39 1011.39 1011.55 1011.51 1011.75 1012.07 1012.19 1012.23 1012.43 1012.71 1012.83 1013.03 1013.03 1013.19 1013.43 1013.47 1013.59 1013.87 1014.23 1014.59 1014.55 1014.31 1014.83 1015.19 1015.47 1015.55 1015.51 1015.39 1015.31 1015.55 1015.63
1010.51 1010.47 1010.63 1010.75 1010.91 1010.83 1011.03 1010.91 1010.83 1010.95 1010.99 1011.27 1011.27 1011.15 1011.55 1011.63 1011.71 1011.99 1012.15 1012.31 1012.47 1012.63 1012.83 1012.95 1013.07 1013.19 1013.31 1013.35 1013.59 1013.87 1014.27 1014.51 1014.35 1014.47 1014.79 1014.99 1015.11 1015.11 1015.11 1015.19 1015.35 1015.55
1010.27 1010.27 1010.47 1010.55 1010.59 1010.51 1010.67 1010.71 1010.67 1010.71 1010.87 1011.23 1011.27 1011.19 1011.19 1011.47 1011.71 1011.79 1012.11 1012.27 1012.47 1012.59 1012.67 1012.79 1012.83 1012.91 1013.19 1013.35 1013.35 1013.47 1013.83 1014.11 1014.23 1014.23 1014.31 1014.47 1014.59 1014.75 1014.83 1014.95 1015.23 1015.39
1010.07 1010.07 1010.19 1010.31 1010.39 1010.31 1010.35 1010.35 1010.43 1010.55 1010.71 1010.95 1011.07 1011.35 1011.27 1011.27 1011.59 1011.79 1011.95 1012.27 1012.39 1012.35 1012.39 1012.47 1012.55 1012.67 1012.99 1013.23 1013.27 1013.27 1013.47 1013.67 1013.83 1013.99 1014.11 1014.23 1014.39 1014.59 1014.71 1014.75 1014.91 1014.99
1009.79 1009.83 1009.83 1009.87 1010.03 1010.07 1009.91 1009.99 1010.19 1010.35 1010.55 1010.87 1010.95 1011.11 1011.35 1011.47 1011.51 1011.83 1011.91 1012.11 1012.23 1012.23 1012.27 1012.31 1012.43 1012.55 1012.75 1012.99 1013.11 1013.11 1013.23 1013.35 1013.55 1013.79 1013.95 1014.07 1014.15 1014.27 1014.27 1014.35 1014.55 1014.71
1009.67 1009.39 1009.47 1009.55 1009.55 1009.71 1009.79 1009.75 1009.87 1009.95 1010.15 1010.43 1010.63 1011.03 1011.23 1011.23 1011.47 1011.71 1011.83 1011.87 1012.03 1012.19 1012.19 1012.11 1012.31 1012.55 1012.71 1012.83 1012.91 1013.03 1013.11 1013.27 1013.55 1013.75 1013.91 1014.03 1014.03 1014.07 1014.07 1014.23 1014.35 1014.51
1009.59 1009.43 1009.23 1009.27 1009.43 1009.55 1009.75 1009.79 1009.75 1009.79 1009.87 1010.07 1010.43 1010.79 1010.83 1010.91 1011.07 1011.23 1011.71 1011.91 1011.91 1012.03 1012.11 1012.07 1012.19 1012.47 1012.51 1012.67 1012.87 1012.99 1012.95 1013.15 1013.39 1013.63 1013.71 1013.91 1013.99 1013.99 1013.95 1014.07 1014.19 1014.27
1009.79 1009.59 1009.47 1009.31 1009.43 1009.59 1009.71 1009.75 1009.75 1009.75 1009.79 1010.03 1010.23 1010.43 1010.63 1010.79 1010.95 1011.11 1011.51 1011.79 1012.03 1012.07 1012.07 1012.15 1012.15 1012.03 1012.15 1012.31 1012.43 1012.67 1012.87 1012.91 1012.91 1013.07 1013.27 1013.55 1013.87 1014.03 1014.07 1014.07 1014.19 1014.27
1009.91 1009.83 1009.67 1009.67 1009.55 1009.55 1009.59 1009.67 1009.83 1009.79 1009.79 1009.99 1010.15 1010.23 1010.51 1010.79 1010.99 1011.23 1011.43 1011.79 1012.07 1012.11 1012.11 1012.07 1011.99 1011.99 1012.19 1012.35 1012.43 1012.51 1012.63 1012.83 1013.03 1013.31 1013.31 1013.51 1013.79 1014.11 1014.35 1014.27 1014.19 1014.23
1009.87 1009.83 1009.83 1009.79 1009.67 1009.71 1009.59 1009.59 1009.67 1009.91 1010.07 1010.11 1010.27 1010.59 1010.59 1010.67 1011.15 1011.35 1011.31 1011.51 1011.83 1012.03 1012.31 1012.07 1011.95 1011.87 1011.91 1011.99 1012.19 1012.43 1012.51 1012.67 1012.91 1013.31 1013.43 1013.55 1013.71 1013.87 1013.99 1014.11 1014.23 1014.31
1009.67 1009.75 1009.75 1009.79 1009.75 1009.67 1009.51 1009.51 1009.71 1009.95 1010.15 1010.27 1010.39 1010.23 1010.43 1010.83 1011.11 1011.27 1011.47 1011.39 1011.75 1012.11 1012.15 1011.95 1011.99 1011.95 1011.95 1011.91 1012.15 1012.31 1012.39 1012.51 1012.75 1012.99 1013.31 1013.43 1013.55 1013.67 1013.83 1013.95 1014.07 1014.31
1009.47 1009.67 1009.75 1009.71 1009.63 1009.67 1009.67 1009.59 1009.71 1009.99 1009.99 1009.95 1010.07 1010.19 1010.47 1010.75 1010.91 1011.19 1011.31 1011.51 1011.55 1011.71 1011.91 1011.91 1012.07 1012.11 1012.15 1012.07 1012.15 1012.23 1012.31 1012.47 1012.63 1012.83 1012.99 1013.19 1013.35 1013.47 1013.59 1013.87 1013.99 1014.19
1009.11 1009.35 1009.55 1009.43 1009.43 1009.55 1009.71 1009.87 1009.83 1009.75 1009.87 1009.99 1010.11 1010.31 1010.51 1010.63 1010.79 1011.03 1011.15 1011.31 1011.43 1011.47 1011.63 1011.71 1011.71 1011.87 1012.07 1012.11 1012.19 1012.23 1012.31 1012.51 1012.63 1012.71 1012.87 1012.99 1013.03 1013.11 1013.31 1013.47 1013.59 1013.79
1008.63 1008.83 1008.91 1008.95 1009.07 1009.27 1009.55 1009.83 1009.99 1009.99 1009.99 1010.03 1010.31 1010.39 1010.11 1010.11 1010.31 1010.51 1010.91 1011.15 1011.27 1011.43 1011.67 1011.83 1011.51 1011.55 1011.75 1011.95 1012.11 1012.27 1012.43 1012.63 1012.67 1012.91 1013.07 1013.11 1013.07 1012.95 1012.95 1013.03 1013.15 1013.39
1008.19 1008.47 1008.63 1008.63 1008.67 1008.95 1009.23 1009.43 1009.71 1009.95 1009.91 1009.79 1010.07 1010.31 1010.67 1010.51 1010.23 1010.31 1010.43 1010.79 1011.07 1011.31 1011.59 1011.75 1011.63 1011.59 1011.63 1011.83 1011.99 1012.15 1012.51 1012.59 1012.75 1012.91 1013.11 1013.23 1013.19 1012.95 1012.75 1012.71 1012.99 1013.27
1008.31 1008.51 1008.71 1008.71 1008.79 1008.87 1008.83 1008.95 1009.11 1009.39 1009.55 1009.55 1009.87 1010.11 1010.35 1010.55 1010.35 1010.19 1010.23 1010.43 1010.83 1011.11 1011.23 1011.63 1011.51 1011.55 1011.75 1011.75 1011.87 1012.15 1012.23 1012.47 1012.71 1012.95 1013.11 1013.15 1013.11 1012.87 1012.91 1013.23 1013.27 1013.35
1008.11 1008.39 1008.55 1008.63 1008.67 1008.59 1008.55 1008.71 1008.87 1009.07 1009.19 1009.43 1009.79 1010.03 1010.31 1010.39 1010.51 1010.55 1010.35 1010.35 1010.55 1010.83 1010.95 1011.31 1011.39 1011.71 1011.95 1012.15 1012.35 1012.35 1012.27 1012.27 1012.55 1012.87 1013.23 1013.19 1013.11 1013.35 1013.31 1013.43 1013.55 1013.55
1007.63 1007.91 1008.19 1008.43 1008.43 1008.51 1008.59 1008.79 1008.79 1008.95 1009.27 1009.63 1009.87 1010.03 1010.19 1010.31 1010.47 1010.71 1010.83 1010.63 1010.43 1010.75 1010.95 1011.07 1011.59 1012.07 1012.31 1012.31 1012.31 1012.47 1012.55 1012.47 1012.43 1012.83 1013.23 1013.23 1013.27 1013.43 1013.63 1013.75 1014.23 1014.35
Thickness
5780 5781 5780 5780 5779 5779 5779 5778 5779 5779 5778 5779 5779 5779 5782 5782 5784 5784 5782 5782 5783 5782 5782 5781 5781 5782 5782 5783 5784 5784 5783 5783 5783 5785 5785 5783 5783 5785 5786 5787 5788 5785
5781 5782 5783 5783 5782 5782 5782 5783 5783 5783 5783 5783 5784 5783 5784 5785 5785 5786 5784 5784 5784 5784 5784 5784 5783 5784 5784 5785 5785 5784 5783 5782 5784 5786 5785 5784 5784 5786 5787 5788 5788 5786
5781 5782 5783 5784 5784 5785 5785 5787 5787 5787 5787 5787 5787 5786 5786 5787 5787 5786 5786 5785 5785 5786 5786 5786 5786 5786 5787 5787 5786 5786 5785 5784 5785 5787 5786 5784 5785 5786 5787 5788 5788 5787
5782 5783 5785 5787 5788 5789 5790 5790 5789 5790 5790 5789 5789 5789 5789 5790 5789 5787 5788 5787 5787 5787 5788 5788 5788 5788 5788 5788 5787 5785 5786 5786 5786 5788 5786 5784 5786 5787 5788 5790 5789 5788
5785 5786 5787 5789 5791 5792 5792 5792 5790 5791 5792 5791 5792 5793 5792 5791 5791 5789 5788 5788 5788 5788 5789 5789 5789 5790 5789 5789 5788 5786 5787 5787 5788 5789 5786 5785 5787 5788 5790 5791 5790 5789
5787 5788 5789 5790 5793 5793 5793 5793 5793 5793 5794 5794 5794 5795 5794 5794 5792 5791 5789 5789 5789 5789 5790 5791 5790 5791 5792 5791 5789 5788 5789 5789 5790 5790 5787 5787 5789 5790 5791 5791 5790 5789
5788 5789 5790 5791 5793 5793 5793 5794 5795 5796 5797 5797 5796 5796 5796 5794 5792 5793 5792 5790 5790 5791 5792 5792 5791 5791 5793 5792 5790 5789 5790 5791 5792 5791 5788 5788 5788 5789 5790 5791 5790 5788
5790 5791 5791 5792 5793 5793 5793 5794 5795 5796 5798 5798 5797 5797 5797 5796 5793 5794 5794 5793 5792 5792 5793 5793 5792 5792 5793 5793 5791 5789 5789 5791 5792 5790 5788 5788 5787 5787 5789 5789 5789 5787
5790 5792 5792 5792 5793 5793 5793 5795 5796 5797 5798 5797 5797 5798 5798 5797 5796 5796 5796 5795 5794 5794 5794 5793 5793 5793 5793 5794 5792 5790 5789 5790 5791 5790 5787 5786 5787 5786 5788 5789 5788 5787
5791 5792 5793 5792 5793 5794 5794 5795 5797 5798 5797 5797 5798 5799 5799 5798 5798 5797 5796 5796 5796 5795 5795 5794 5794 5794 5794 5794 5794 5793 5790 5789 5791 5791 5789 5788 5788 5788 5789 5789 5787 5787
5792 5792 5793 5793 5794 5796 5796 5796 5798 5799 5798 5797 5797 5798 5799 5799 5798 5797 5796 5796 5796 5796 5797 5796 5796 5796 5794 5793 5794 5795 5793 5791 5791 5792 5791 5791 5790 5790 5790 5789 5788 5788
5793 5794 5794 5794 5795 5797 5798 5799 5799 5799 5798 5797 5796 5797 5797 5798 5798 5797 5796 5795 5796 5797 5799 5798 5798 5798 5796 5794 5794 5795 5795 5793 5793 5793 5793 5793 5792 5791 5791 5790 5790 5789
5794 5795 5796 5796 5797 5798 5800 5800 5800 5799 5798 5798 5797 5796 5796 5797 5796 5796 5796 5796 5796 5797 5798 5799 5799 5799 5797 5796 5795 5796 5796 5795 5794 5793 5793 5793 5792 5792 5792 5791 5791 5790
5794 5797 5798 5799 5799 5799 5800 5801 5802 5801 5800 5799 5798 5797 5796 5796 5797 5795 5796 5796 5797 5797 5798 5800 5800 5799 5798 5797 5797 5797 5797 5796 5795 5793 5792 5792 5792 5792 5793 5793 5792 5791
5792 5796 5799 5800 5800 5800 5799 5800 5801 5802 5802 5801 5799 5797 5797 5798 5798 5797 5796 5795 5796 5797 5797 5799 5799 5799 5799 5799 5798 5798 5798 5797 5796 5795 5794 5793 5792 5793 5793 5793 5792 5792
5788 5791 5795 5798 5799 5799 5799 5800 5800 5801 5802 5801 5799 5799 5798 5798 5798 5798 5796 5794 5794 5795 5796 5797 5798 5799 5799 5799 5800 5799 5798 5798 5798 5797 5796 5794 5793 5792 5792 5792 5792 5791
5783 5787 5790 5793 5795 5797 5799 5799 5799 5799 5800 5800 5799 5798 5798 5797 5796 5796 5795 5793 5792 5793 5794 5795 5797 5798 5799 5799 5799 5799 5799 5799 5797 5796 5795 5795 5793 5791 5789 5789 5790 5790
5780 5783 5786 5788 5791 5794 5796 5798 5797 5797 5797 5797 5796 5796 5796 5795 5794 5793 5794 5793 5792 5791 5792 5794 5796 5798 5799 5799 5798 5798 5797 5798 5796 5794 5794 5793 5792 5791 5789 5788 5788 5787
5778 5780 5782 5785 5787 5790 5793 5795 5795 5794 5794 5794 5795 5796 5795 5794 5792 5791 5791 5792 5791 5790 5790 5793 5795 5796 5797 5797 5797 5797 5796 5796 5795 5793 5792 5791 5790 5790 5788 5787 5786 5784
5779 5779 5780 5782 5785 5786 5788 5791 5791 5792 5793 5793 5793 5794 5793 5792 5791 5790 5790 5789 5790 5790 5790 5792 5792 5792 5794 5794 5794 5795 5795 5794 5793 5793 5792 5791 5790 5789 5787 5785 5784 5783
5783 5782 5782 5783 5785 5785 5785 5786 5787 5789 5790 5790 5791 5791 5791 5792 5792 5790 5789 5787 5788 5789 5789 5790 5791 5791 5792 5792 5793 5793 5793 5792 5791 5790 5790 5790 5788 5788 5787 5785 5785 5784
5785 5785 5786 5788 5788 5787 5785 5784 5783 5784 5786 5787 5787 5787 5789 5792 5793 5791 5790 5788 5787 5787 5786 5786 5789 5791 5791 5791 5791 5790 5790 5790 5789 5787 5786 5785 5786 5786 5787 5787 5787 5784
5785 5785 5785 5786 5787 5787 5786 5785 5784 5783 5784 5786 5786 5785 5785 5788 5791 5793 5792 5789 5787 5786 5784 5783 5786 5789 5789 5789 5789 5788 5787 5786 5786 5785 5783 5781 5782 5784 5785 5786 5785 5782
5782 5781 5781 5781 5783 5785 5785 5786 5785 5784 5784 5785 5785 5784 5783 5783 5786 5790 5791 5789 5786 5785 5784 5783 5784 5786 5786 5786 5786 5785 5785 5785 5783 5781 5780 5778 5779 5780 5781 5781 5780 5777
5780 5780 5780 5780 5781 5783 5784 5784 5784 5784 5784 5783 5783 5782 5781 5780 5782 5784 5786 5788 5787 5784 5783 5782 5781 5781 5781 5781 5781 5780 5781 5782 5781 5778 5775 5775 5776 5775 5775 5775 5773 5771
5780 5780 5779 5779 5779 5779 5779 5778 5779 5780 5780 5779 5779 5779 5778 5777 5777 5776 5778 5779 5780 5780 5779 5777 5777 5776 5775 5774 5775 5775 5775 5777 5777 5775 5772 5772 5771 5770 5768 5766 5764 5762